Hourly Weather Kiszewo

Today, 2 August, Monday

Time Temperature Precipitation Wind Pressure Humidity
00:00 +14°C° 0 mm 3 mps 750 mmHg 92%
01:00 +14°C° 0 mm 3 mps 750 mmHg 94%
02:00 +13°C° 0 mm 3 mps 750 mmHg 94%
03:00 +13°C° 0 mm 3 mps 750 mmHg 95%
04:00 +13°C° 0 mm 3 mps 751 mmHg 95%
05:00 +14°C° 0 mm 4 mps 751 mmHg 90%
06:00 +15°C° 0 mm 4 mps 751 mmHg 85%
07:00 +16°C° 0 mm 5 mps 752 mmHg 80%
08:00 +17°C° 0 mm 5 mps 752 mmHg 69%
09:00 +20°C° 0 mm 6 mps 752 mmHg 57%
10:00 +21°C° 0 mm 7 mps 752 mmHg 46%
11:00 +22°C° 0 mm 7 mps 752 mmHg 42%
12:00 +23°C° 0 mm 7 mps 752 mmHg 38%
13:00 +24°C° 0 mm 7 mps 752 mmHg 34%
14:00 +23°C° 0 mm 7 mps 752 mmHg 35%
15:00 +23°C° 0 mm 7 mps 752 mmHg 36%
16:00 +23°C° 0 mm 7 mps 753 mmHg 37%
17:00 +22°C° 0 mm 6 mps 753 mmHg 41%
18:00 +21°C° 0 mm 5 mps 753 mmHg 45%
19:00 +20°C° 0 mm 5 mps 753 mmHg 49%
20:00 +18°C° 0 mm 4 mps 753 mmHg 56%
21:00 +17°C° 0 mm 3 mps 754 mmHg 62%
22:00 +14°C° 0 mm 3 mps 754 mmHg 68%
23:00 +14°C° 0 mm 3 mps 754 mmHg 73%

Tomorrow, 3 August, Tuesday

Time Temperature Precipitation Wind Pressure Humidity
00:00 +13°C° 0 mm 3 mps 755 mmHg 78%
01:00 +13°C° 0 mm 3 mps 755 mmHg 83%
02:00 +12°C° 0 mm 3 mps 755 mmHg 87%
03:00 +12°C° 0 mm 3 mps 755 mmHg 90%
04:00 +12°C° 0 mm 3 mps 755 mmHg 94%
05:00 +13°C° 0 mm 3 mps 756 mmHg 86%
06:00 +16°C° 0 mm 3 mps 756 mmHg 79%
07:00 +17°C° 0 mm 3 mps 756 mmHg 71%
08:00 +19°C° 0 mm 3 mps 756 mmHg 63%
09:00 +20°C° 0 mm 4 mps 756 mmHg 54%
10:00 +22°C° 0 mm 4 mps 756 mmHg 46%
11:00 +23°C° 0 mm 4 mps 756 mmHg 43%
12:00 +23°C° 0 mm 4 mps 756 mmHg 40%
13:00 +25°C° 0 mm 4 mps 755 mmHg 38%
14:00 +24°C° 0 mm 3 mps 755 mmHg 39%
15:00 +24°C° 0 mm 3 mps 755 mmHg 40%
16:00 +24°C° 0 mm 2 mps 755 mmHg 41%
17:00 +23°C° 0 mm 2 mps 755 mmHg 44%
18:00 +21°C° 0 mm 2 mps 755 mmHg 47%
19:00 +21°C° 0 mm 1 mps 755 mmHg 50%
20:00 +20°C° 0 mm 1 mps 755 mmHg 53%
21:00 +18°C° 0 mm 2 mps 755 mmHg 56%
22:00 +17°C° 0 mm 2 mps 756 mmHg 59%
23:00 +17°C° 0 mm 2 mps 756 mmHg 62%

Day after tomorrow, 4 August, Wednesday

Time Temperature Precipitation Wind Pressure Humidity
00:00 +16°C° 0 mm 2 mps 756 mmHg 65%
01:00 +15°C° 0 mm 2 mps 756 mmHg 68%
02:00 +15°C° 0 mm 2 mps 756 mmHg 71%
03:00 +15°C° 0 mm 2 mps 755 mmHg 74%
04:00 +14°C° 0 mm 2 mps 755 mmHg 77%
05:00 +16°C° 0 mm 2 mps 755 mmHg 73%
06:00 +18°C° 0 mm 1 mps 755 mmHg 70%
07:00 +20°C° 0 mm 1 mps 756 mmHg 66%
08:00 +22°C° 0 mm 1 mps 755 mmHg 60%
09:00 +24°C° 0 mm 2 mps 755 mmHg 53%
10:00 +26°C° 0 mm 2 mps 755 mmHg 46%
11:00 +26°C° 0 mm 2 mps 755 mmHg 44%
12:00 +26°C° 0 mm 2 mps 754 mmHg 42%
13:00 +27°C° 0 mm 2 mps 754 mmHg 40%
14:00 +26°C° 0 mm 2 mps 754 mmHg 44%
15:00 +25°C° 0 mm 2 mps 754 mmHg 47%
16:00 +24°C° 0 mm 2 mps 754 mmHg 51%
17:00 +24°C° 0.1 mm 2 mps 754 mmHg 55%
18:00 +23°C° 0.1 mm 2 mps 754 mmHg 58%
19:00 +21°C° 0.1 mm 2 mps 754 mmHg 62%
20:00 +20°C° 0.2 mm 2 mps 754 mmHg 69%
21:00 +19°C° 0.2 mm 2 mps 754 mmHg 76%
22:00 +18°C° 0.2 mm 2 mps 755 mmHg 83%
23:00 +18°C° 0 mm 2 mps 754 mmHg 83%

5 August, Thursday

Time Temperature Precipitation Wind Pressure Humidity
00:00 +17°C° 0 mm 2 mps 754 mmHg 84%
01:00 +17°C° 0 mm 2 mps 754 mmHg 84%
02:00 +17°C° 0 mm 2 mps 754 mmHg 85%
03:00 +16°C° 0 mm 2 mps 754 mmHg 87%
04:00 +16°C° 0 mm 2 mps 754 mmHg 88%
05:00 +16°C° 0 mm 2 mps 754 mmHg 85%
06:00 +17°C° 0 mm 2 mps 754 mmHg 82%
07:00 +18°C° 0 mm 2 mps 754 mmHg 79%
08:00 +19°C° 0 mm 2 mps 754 mmHg 74%
09:00 +19°C° 0 mm 2 mps 754 mmHg 69%
10:00 +20°C° 0 mm 2 mps 754 mmHg 64%
11:00 +21°C° 0 mm 2 mps 753 mmHg 60%
12:00 +22°C° 0 mm 3 mps 753 mmHg 57%
13:00 +22°C° 0 mm 3 mps 753 mmHg 53%
14:00 +24°C° 0 mm 3 mps 752 mmHg 52%
15:00 +24°C° 0 mm 2 mps 752 mmHg 51%
16:00 +24°C° 0 mm 2 mps 752 mmHg 50%
17:00 +23°C° 0.1 mm 2 mps 752 mmHg 55%
18:00 +22°C° 0.1 mm 1 mps 752 mmHg 59%
19:00 +21°C° 0.1 mm 1 mps 751 mmHg 64%
20:00 +20°C° 0 mm 1 mps 751 mmHg 70%
21:00 +19°C° 0 mm 1 mps 751 mmHg 76%
22:00 +16°C° 0 mm 1 mps 751 mmHg 81%
23:00 +16°C° 0 mm 2 mps 751 mmHg 81%

6 August, Friday

Time Temperature Precipitation Wind Pressure Humidity
00:00 +16°C° 0 mm 2 mps 751 mmHg 82%
01:00 +16°C° 0 mm 2 mps 751 mmHg 82%
02:00 +15°C° 0 mm 2 mps 750 mmHg 84%
03:00 +15°C° 0 mm 2 mps 750 mmHg 87%
04:00 +14°C° 0 mm 2 mps 750 mmHg 90%
05:00 +16°C° 0 mm 2 mps 750 mmHg 83%
06:00 +17°C° 0 mm 3 mps 750 mmHg 75%
07:00 +19°C° 0 mm 3 mps 750 mmHg 68%
08:00 +21°C° 0 mm 4 mps 749 mmHg 61%
09:00 +22°C° 0 mm 5 mps 749 mmHg 54%
10:00 +24°C° 0 mm 6 mps 749 mmHg 47%
11:00 +26°C° 0 mm 6 mps 749 mmHg 44%
12:00 +27°C° 0 mm 6 mps 748 mmHg 40%
13:00 +28°C° 0 mm 6 mps 748 mmHg 37%
14:00 +27°C° 0 mm 5 mps 748 mmHg 40%
15:00 +27°C° 0 mm 5 mps 748 mmHg 42%
16:00 +26°C° 0 mm 5 mps 749 mmHg 44%
17:00 +25°C° 0.1 mm 4 mps 749 mmHg 48%
18:00 +23°C° 0.1 mm 4 mps 749 mmHg 51%
19:00 +24°C° 0.1 mm 3 mps 749 mmHg 54%
20:00 +21°C° 0.2 mm 3 mps 749 mmHg 63%
21:00 +19°C° 0.2 mm 3 mps 750 mmHg 72%
22:00 +18°C° 0.2 mm 3 mps 750 mmHg 80%
23:00 +17°C° 0 mm 3 mps 750 mmHg 82%

7 August, Saturday

Time Temperature Precipitation Wind Pressure Humidity
00:00 +17°C° 0 mm 3 mps 751 mmHg 84%
01:00 +16°C° 0 mm 3 mps 751 mmHg 86%
02:00 +16°C° 0 mm 3 mps 751 mmHg 88%
03:00 +14°C° 0 mm 3 mps 752 mmHg 90%
04:00 +14°C° 0 mm 3 mps 752 mmHg 92%
05:00 +16°C° 0 mm 3 mps 752 mmHg 87%
06:00 +17°C° 0 mm 3 mps 752 mmHg 82%
07:00 +19°C° 0 mm 4 mps 753 mmHg 78%
08:00 +20°C° 0 mm 4 mps 753 mmHg 70%
09:00 +22°C° 0 mm 3 mps 753 mmHg 62%
10:00 +25°C° 0 mm 3 mps 753 mmHg 54%
11:00 +26°C° 0 mm 4 mps 753 mmHg 49%
12:00 +27°C° 0 mm 4 mps 753 mmHg 44%
13:00 +28°C° 0 mm 4 mps 753 mmHg 38%
14:00 +29°C° 0 mm 4 mps 752 mmHg 36%
15:00 +29°C° 0 mm 4 mps 752 mmHg 34%
16:00 +29°C° 0 mm 4 mps 752 mmHg 32%
17:00 +28°C° 0 mm 3 mps 752 mmHg 36%
18:00 +27°C° 0 mm 3 mps 752 mmHg 41%
19:00 +25°C° 0 mm 2 mps 752 mmHg 45%
20:00 +24°C° 0 mm 2 mps 753 mmHg 49%
21:00 +22°C° 0 mm 3 mps 753 mmHg 54%
22:00 +21°C° 0 mm 3 mps 753 mmHg 59%
23:00 +20°C° 0.3 mm 2 mps 753 mmHg 64%
Show more